| time (UTC) | temp F | wind direction | speed knots | gust knots | rain 1hr in | rain 24hr in | rain mn in | humidity % | barometer mb |
| 20260503184224 | 63 | 295 | 2.6 | 6.1 | 0.00 | 0.00 | 0.00 | 45 | 1012.3 |
| 20260503183720 | 64 | 272 | 3.5 | 4.3 | 0.00 | 0.00 | 0.00 | 43 | 1012.4 |
| 20260503183217 | 63 | 233 | 2.6 | 5.2 | 0.00 | 0.00 | 0.00 | 44 | 1012.4 |
| 20260503182716 | 64 | 356 | 2.6 | 5.2 | 0.00 | 0.00 | 0.00 | 42 | 1012.6 |
| 20260503182214 | 63 | 286 | 0.9 | 1.7 | 0.00 | 0.00 | 0.00 | 44 | 1012.9 |
| 20260503181710 | 63 | 274 | 3.5 | 6.1 | 0.00 | 0.00 | 0.00 | 44 | 1012.7 |
| 20260503181207 | 63 | 282 | 3.5 | 5.2 | 0.00 | 0.00 | 0.00 | 46 | 1012.5 |
| 20260503180704 | 62 | 289 | 2.6 | 4.3 | 0.00 | 0.00 | 0.00 | 48 | 1012.8 |
| 20260503180202 | 61 | 114 | 2.6 | 2.6 | 0.00 | 0.00 | 0.00 | 47 | 1012.8 |
| 20260503175659 | 60 | 151 | 3.5 | 5.2 | 0.00 | 0.00 | 0.00 | 49 | 1013.0 |
| 20260503175156 | 60 | 85 | 0.9 | 1.7 | 0.00 | 0.00 | 0.00 | 50 | 1013.1 |
| 20260503174652 | 62 | 222 | 6.1 | 7.0 | 0.00 | 0.00 | 0.00 | 48 | 1013.4 |
| 20260503174150 | 64 | 260 | 4.3 | 5.2 | 0.00 | 0.00 | 0.00 | 45 | 1013.5 |
| 20260503173645 | 63 | 126 | 2.6 | 2.6 | 0.00 | 0.00 | 0.00 | 49 | 1013.3 |
| 20260503173141 | 62 | 283 | 2.6 | 4.3 | 0.00 | 0.00 | 0.00 | 47 | 1013.5 |
| 20260503172638 | 61 | 177 | 2.6 | 4.3 | 0.00 | 0.00 | 0.00 | 46 | 1013.7 |
| 20260503172136 | 61 | 275 | 0.9 | 1.7 | 0.00 | 0.00 | 0.00 | 47 | 1013.6 |
| 20260503171632 | 62 | 146 | 1.7 | 4.3 | 0.00 | 0.00 | 0.00 | 52 | 1013.5 |
| 20260503171129 | 61 | 237 | 2.6 | 4.3 | 0.00 | 0.00 | 0.00 | 51 | 1013.9 |
| 20260503170626 | 61 | 170 | 2.6 | 6.1 | 0.00 | 0.00 | 0.00 | 48 | 1013.7 |
| 20260503170123 | 61 | 174 | 2.6 | 4.3 | 0.00 | 0.00 | 0.00 | 49 | 1013.8 |
| 20260503151012 | 53 | 278 | 0.9 | 0.9 | 0.00 | 0.00 | 0.00 | 59 | 1015.0 |
| 20260503150509 | 52 | 163 | 2.6 | 4.3 | 0.00 | 0.00 | 0.00 | 56 | 1015.2 |
| 20260503131402 | 50 | 164 | 2.6 | 2.6 | 0.00 | 0.00 | 0.00 | 57 | 1015.3 |
| 20260503130859 | 50 | 296 | 1.7 | 1.7 | 0.00 | 0.00 | 0.00 | 56 | 1015.4 |
| 20260503130356 | 50 | 246 | 0.9 | 0.9 | 0.00 | 0.00 | 0.00 | 58 | 1015.2 |
| 20260503110750 | 40 | 252 | 0.9 | 0.9 | 0.00 | 0.00 | 0.00 | 73 | 1015.1 |
| 20260503110247 | 39 | 230 | 0.9 | 0.9 | 0.00 | 0.00 | 0.00 | 73 | 1015.2 |
| 20260503100213 | 38 | 302 | 0.9 | 0.9 | 0.00 | 0.00 | 0.00 | 73 | 1015.1 |
| 20260503090138 | 36 | 275 | 0.0 | 0.0 | 0.00 | 0.00 | 0.00 | 76 | 1016.0 |
| 20260503081608 | 31 | 279 | 0.0 | 0.0 | 0.00 | 0.00 | 0.00 | 92 | 1016.1 |
| 20260503081105 | 31 | 279 | 0.0 | 0.0 | 0.00 | 0.00 | 0.00 | 92 | 1016.1 |
| 20260503080601 | 31 | 279 | 0.0 | 0.0 | 0.00 | 0.00 | 0.00 | 93 | 1016.3 |
| 20260503072540 | 30 | 276 | 0.0 | 0.0 | 0.00 | 0.00 | 0.00 | 93 | 1016.5 |
| 20260503072037 | 30 | 276 | 0.0 | 0.0 | 0.00 | 0.00 | 0.00 | 93 | 1016.4 |
| 20260503071534 | 30 | 276 | 0.0 | 0.0 | 0.00 | 0.00 | 0.00 | 93 | 1016.4 |
| 20260503071031 | 30 | 276 | 0.0 | 0.0 | 0.00 | 0.00 | 0.00 | 93 | 1016.3 |
| 20260503070527 | 30 | 276 | 0.0 | 0.0 | 0.00 | 0.00 | 0.00 | 93 | 1016.8 |
| 20260503054945 | 31 | 276 | 0.0 | 0.0 | 0.00 | 0.00 | 0.00 | 93 | 1017.4 |
| 20260503054442 | 31 | 276 | 0.0 | 0.0 | 0.00 | 0.00 | 0.00 | 93 | 1017.3 |
| 20260503053940 | 31 | 276 | 0.0 | 0.0 | 0.00 | 0.00 | 0.00 | 93 | 1017.5 |
| 20260503053437 | 31 | 276 | 0.0 | 0.0 | 0.00 | 0.00 | 0.00 | 93 | 1017.4 |
| 20260503052933 | 31 | 276 | 0.0 | 0.0 | 0.00 | 0.00 | 0.00 | 93 | 1017.4 |
| 20260503052432 | 31 | 276 | 0.0 | 0.0 | 0.00 | 0.00 | 0.00 | 93 | 1017.3 |
| 20260503051927 | 31 | 276 | 0.0 | 0.0 | 0.00 | 0.00 | 0.00 | 93 | 1017.4 |
| 20260503051423 | 31 | 276 | 0.0 | 0.0 | 0.00 | 0.00 | 0.00 | 93 | 1017.3 |
| 20260503050921 | 31 | 276 | 0.0 | 0.0 | 0.00 | 0.00 | 0.00 | 93 | 1017.5 |
| 20260503050416 | 31 | 276 | 0.0 | 0.0 | 0.00 | 0.00 | 0.00 | 92 | 1017.5 |
| 20260503045914 | 31 | 276 | 0.0 | 0.0 | 0.00 | 0.00 | 0.00 | 92 | 1017.5 |
| 20260503045411 | 31 | 276 | 0.0 | 0.0 | 0.00 | 0.00 | 0.00 | 92 | 1017.7 |
| 20260503044908 | 31 | 276 | 0.0 | 0.0 | 0.00 | 0.00 | 0.00 | 92 | 1017.6 |
| 20260503044405 | 31 | 276 | 0.0 | 0.0 | 0.00 | 0.00 | 0.00 | 92 | 1017.6 |
| 20260503043902 | 31 | 276 | 0.0 | 0.0 | 0.00 | 0.00 | 0.00 | 92 | 1017.8 |
| 20260503043359 | 31 | 276 | 0.0 | 0.0 | 0.00 | 0.00 | 0.00 | 91 | 1017.8 |
| 20260503042855 | 32 | 276 | 0.0 | 0.0 | 0.00 | 0.00 | 0.00 | 91 | 1017.7 |
| 20260503042352 | 32 | 276 | 0.0 | 0.0 | 0.00 | 0.00 | 0.00 | 91 | 1017.6 |
| 20260503041848 | 32 | 276 | 0.0 | 0.0 | 0.00 | 0.00 | 0.00 | 91 | 1017.5 |
| 20260503041345 | 32 | 276 | 0.0 | 0.0 | 0.00 | 0.00 | 0.00 | 90 | 1017.7 |
| 20260503040843 | 32 | 276 | 0.0 | 0.0 | 0.00 | 0.00 | 0.00 | 89 | 1017.5 |
| 20260503040341 | 32 | 276 | 0.0 | 0.0 | 0.00 | 0.00 | 0.00 | 89 | 1017.7 |
| 20260503035837 | 32 | 276 | 0.0 | 0.0 | 0.00 | 0.00 | 0.00 | 88 | 1017.8 |
| 20260503035334 | 32 | 276 | 0.0 | 0.0 | 0.00 | 0.00 | 0.00 | 88 | 1017.8 |
| 20260503034831 | 32 | 276 | 0.0 | 0.0 | 0.00 | 0.00 | 0.00 | 89 | 1017.8 |
| 20260503034328 | 32 | 276 | 0.0 | 0.0 | 0.00 | 0.00 | 0.00 | 88 | 1018.0 |
| 20260503033825 | 32 | 276 | 0.0 | 0.0 | 0.00 | 0.00 | 0.00 | 88 | 1017.9 |
| 20260503033323 | 32 | 276 | 0.0 | 0.0 | 0.00 | 0.00 | 0.00 | 88 | 1017.9 |
| 20260503032821 | 33 | 276 | 0.0 | 0.0 | 0.00 | 0.00 | 0.00 | 88 | 1017.9 |
| 20260503032320 | 33 | 276 | 0.0 | 0.0 | 0.00 | 0.00 | 0.00 | 87 | 1017.9 |
| 20260503031816 | 33 | 276 | 0.0 | 0.0 | 0.00 | 0.00 | 0.00 | 87 | 1017.9 |
| 20260503031315 | 33 | 276 | 0.0 | 0.0 | 0.00 | 0.00 | 0.00 | 87 | 1017.8 |
| 20260503030811 | 33 | 276 | 0.0 | 0.0 | 0.00 | 0.00 | 0.00 | 87 | 1017.9 |
| 20260503030307 | 33 | 276 | 0.0 | 0.0 | 0.00 | 0.00 | 0.00 | 86 | 1017.8 |
| 20260503025804 | 33 | 276 | 0.0 | 0.0 | 0.00 | 0.00 | 0.00 | 86 | 1017.9 |
| 20260503025301 | 33 | 276 | 0.0 | 0.0 | 0.00 | 0.00 | 0.00 | 84 | 1018.2 |
| 20260503024758 | 34 | 276 | 0.0 | 0.0 | 0.00 | 0.00 | 0.00 | 85 | 1017.9 |
| 20260503024255 | 34 | 276 | 0.0 | 0.0 | 0.00 | 0.00 | 0.00 | 84 | 1018.0 |
| 20260503023752 | 34 | 276 | 0.0 | 0.0 | 0.00 | 0.00 | 0.00 | 81 | 1018.3 |
| 20260503023249 | 35 | 276 | 0.0 | 0.0 | 0.00 | 0.00 | 0.00 | 79 | 1017.9 |
| 20260503022745 | 35 | 276 | 0.0 | 0.0 | 0.00 | 0.00 | 0.00 | 80 | 1018.1 |
| 20260503022240 | 35 | 276 | 0.0 | 0.0 | 0.00 | 0.00 | 0.00 | 80 | 1018.2 |
| 20260503021737 | 35 | 276 | 0.0 | 0.0 | 0.00 | 0.00 | 0.00 | 79 | 1018.1 |
| 20260503021233 | 35 | 276 | 0.0 | 0.0 | 0.00 | 0.00 | 0.00 | 79 | 1018.0 |
| 20260503020731 | 36 | 276 | 0.0 | 0.0 | 0.00 | 0.00 | 0.00 | 79 | 1018.3 |
| 20260503020228 | 36 | 276 | 0.0 | 0.0 | 0.00 | 0.00 | 0.00 | 76 | 1017.9 |
| 20260503015725 | 37 | 276 | 0.0 | 0.0 | 0.00 | 0.00 | 0.00 | 75 | 1017.9 |
| 20260503015221 | 37 | 276 | 0.0 | 0.0 | 0.00 | 0.00 | 0.00 | 73 | 1017.9 |
| 20260503014717 | 38 | 276 | 0.0 | 0.0 | 0.00 | 0.00 | 0.00 | 72 | 1018.0 |
| 20260503014216 | 38 | 276 | 0.0 | 0.0 | 0.00 | 0.00 | 0.00 | 68 | 1017.8 |
| 20260503013712 | 39 | 276 | 0.0 | 0.0 | 0.00 | 0.00 | 0.00 | 67 | 1017.9 |
| 20260503013210 | 39 | 276 | 0.0 | 0.0 | 0.00 | 0.00 | 0.00 | 65 | 1017.8 |
| 20260503012708 | 40 | 276 | 0.0 | 0.0 | 0.00 | 0.00 | 0.00 | 65 | 1017.9 |
| 20260503012204 | 40 | 277 | 0.0 | 0.9 | 0.00 | 0.00 | 0.00 | 62 | 1017.9 |
| 20260503011701 | 41 | 278 | 0.0 | 0.0 | 0.00 | 0.00 | 0.00 | 62 | 1017.7 |
| 20260503011158 | 41 | 278 | 0.0 | 0.0 | 0.00 | 0.00 | 0.00 | 61 | 1017.7 |
| 20260503010654 | 41 | 278 | 0.0 | 0.0 | 0.00 | 0.00 | 0.00 | 59 | 1017.6 |
| 20260503010151 | 42 | 278 | 0.0 | 0.0 | 0.00 | 0.00 | 0.00 | 58 | 1017.5 |
| 20260503005648 | 42 | 279 | 0.0 | 0.0 | 0.00 | 0.00 | 0.00 | 57 | 1017.6 |
| 20260503005145 | 42 | 285 | 0.0 | 0.0 | 0.00 | 0.00 | 0.00 | 57 | 1017.6 |
| 20260503004641 | 43 | 285 | 0.0 | 0.0 | 0.00 | 0.00 | 0.00 | 56 | 1017.5 |
| 20260503004140 | 43 | 279 | 0.0 | 0.0 | 0.00 | 0.00 | 0.00 | 54 | 1017.8 |
| 20260503003637 | 44 | 273 | 0.0 | 0.0 | 0.00 | 0.00 | 0.00 | 55 | 1017.4 |
| 20260503003134 | 44 | 283 | 0.0 | 0.0 | 0.00 | 0.00 | 0.00 | 55 | 1017.7 |
| 20260503002631 | 45 | 284 | 0.0 | 0.0 | 0.00 | 0.00 | 0.00 | 54 | 1017.5 |
| 20260503002127 | 45 | 286 | 0.0 | 0.0 | 0.00 | 0.00 | 0.00 | 54 | 1017.4 |
| 20260503001623 | 46 | 319 | 0.9 | 1.7 | 0.00 | 0.00 | 0.00 | 51 | 1017.5 |
| 20260503001121 | 46 | 291 | 0.0 | 0.0 | 0.00 | 0.00 | 0.00 | 50 | 1017.4 |
| 20260503000618 | 46 | 301 | 0.9 | 0.9 | 0.00 | 0.00 | 0.00 | 50 | 1017.3 |
| 20260503000115 | 47 | 303 | 0.9 | 0.9 | 0.00 | 0.00 | 0.00 | 50 | 1017.4 |
| 20260502235612 | 47 | 284 | 2.6 | 2.6 | 0.00 | 0.00 | 0.00 | 49 | 1017.5 |
| 20260502235110 | 47 | 281 | 0.9 | 1.7 | 0.00 | 0.00 | 0.00 | 51 | 1017.4 |
| 20260502234605 | 48 | 351 | 0.0 | 0.0 | 0.00 | 0.00 | 0.00 | 49 | 1017.5 |
| 20260502234104 | 48 | 272 | 0.0 | 0.0 | 0.00 | 0.00 | 0.00 | 51 | 1017.5 |
| 20260502233603 | 48 | 305 | 0.9 | 0.9 | 0.00 | 0.00 | 0.00 | 50 | 1017.6 |
| 20260502233101 | 48 | 281 | 0.9 | 0.9 | 0.00 | 0.00 | 0.00 | 49 | 1017.8 |
| 20260502232557 | 48 | 302 | 0.9 | 1.7 | 0.00 | 0.00 | 0.00 | 50 | 1017.6 |
| 20260502232054 | 48 | 301 | 0.9 | 0.9 | 0.00 | 0.00 | 0.00 | 49 | 1017.6 |
| 20260502231551 | 48 | 303 | 0.9 | 1.7 | 0.00 | 0.00 | 0.00 | 49 | 1017.6 |
| 20260502231049 | 49 | 257 | 2.6 | 2.6 | 0.00 | 0.00 | 0.00 | 45 | 1017.6 |
| 20260502230547 | 49 | 283 | 0.0 | 0.9 | 0.00 | 0.00 | 0.00 | 47 | 1017.7 |
| 20260502230045 | 48 | 297 | 0.0 | 0.0 | 0.00 | 0.00 | 0.00 | 49 | 1017.6 |
| 20260502225540 | 48 | 334 | 1.7 | 2.6 | 0.00 | 0.00 | 0.00 | 48 | 1017.6 |
| 20260502225038 | 48 | 349 | 0.9 | 1.7 | 0.00 | 0.00 | 0.00 | 48 | 1017.6 |
| 20260502224534 | 49 | 283 | 0.0 | 0.0 | 0.00 | 0.00 | 0.00 | 50 | 1017.6 |
| 20260502224031 | 49 | 272 | 0.9 | 0.9 | 0.00 | 0.00 | 0.00 | 48 | 1017.7 |
| 20260502223529 | 49 | 345 | 4.3 | 5.2 | 0.00 | 0.00 | 0.00 | 48 | 1017.7 |
| 20260502223027 | 49 | 277 | 0.0 | 0.9 | 0.00 | 0.00 | 0.00 | 49 | 1017.8 |
| 20260502222524 | 50 | 304 | 0.9 | 1.7 | 0.00 | 0.00 | 0.00 | 46 | 1017.8 |
| 20260502222021 | 49 | 234 | 1.7 | 1.7 | 0.00 | 0.00 | 0.00 | 49 | 1017.8 |
| 20260502221516 | 49 | 304 | 1.7 | 1.7 | 0.00 | 0.00 | 0.00 | 48 | 1017.6 |
| 20260502221014 | 49 | 278 | 0.9 | 0.9 | 0.00 | 0.00 | 0.00 | 46 | 1017.6 |
| 20260502220509 | 50 | 259 | 2.6 | 4.3 | 0.00 | 0.00 | 0.00 | 46 | 1017.7 |
| 20260502220006 | 50 | 242 | 0.9 | 1.7 | 0.00 | 0.00 | 0.00 | 48 | 1017.7 |
| 20260502215503 | 49 | 274 | 0.9 | 0.9 | 0.00 | 0.00 | 0.00 | 51 | 1017.7 |
| 20260502215000 | 48 | 29 | 1.7 | 1.7 | 0.00 | 0.00 | 0.00 | 48 | 1017.8 |
| 20260502214457 | 48 | 351 | 1.7 | 2.6 | 0.00 | 0.00 | 0.00 | 50 | 1017.7 |
| 20260502213954 | 48 | 310 | 0.9 | 0.9 | 0.00 | 0.00 | 0.00 | 51 | 1017.9 |
| 20260502213450 | 48 | 268 | 0.0 | 0.9 | 0.00 | 0.00 | 0.00 | 50 | 1017.7 |
| 20260502212949 | 48 | 242 | 0.9 | 1.7 | 0.00 | 0.00 | 0.00 | 51 | 1017.6 |
| 20260502212448 | 49 | 283 | 0.9 | 1.7 | 0.00 | 0.00 | 0.00 | 49 | 1017.8 |
| 20260502211944 | 49 | 267 | 0.9 | 1.7 | 0.00 | 0.00 | 0.00 | 51 | 1017.8 |
| 20260502211440 | 49 | 291 | 1.7 | 2.6 | 0.00 | 0.00 | 0.00 | 48 | 1017.9 |
| 20260502210938 | 50 | 308 | 0.0 | 0.0 | 0.00 | 0.00 | 0.00 | 51 | 1017.8 |
| 20260502210434 | 49 | 359 | 1.7 | 1.7 | 0.00 | 0.00 | 0.00 | 50 | 1017.9 |
| 20260502205932 | 49 | 228 | 0.0 | 1.7 | 0.00 | 0.00 | 0.00 | 49 | 1017.8 |
| 20260502205428 | 50 | 316 | 0.0 | 0.9 | 0.00 | 0.00 | 0.00 | 47 | 1017.8 |
| 20260502204925 | 50 | 322 | 1.7 | 1.7 | 0.00 | 0.00 | 0.00 | 47 | 1017.9 |
| 20260502204422 | 51 | 331 | 0.9 | 1.7 | 0.00 | 0.00 | 0.00 | 46 | 1018.1 |
| 20260502203920 | 49 | 308 | 0.9 | 1.7 | 0.00 | 0.00 | 0.00 | 51 | 1018.0 |
| 20260502203417 | 47 | 281 | 0.0 | 0.9 | 0.00 | 0.00 | 0.00 | 50 | 1018.2 |
| 20260502202912 | 48 | 218 | 1.7 | 1.7 | 0.00 | 0.00 | 0.00 | 55 | 1018.2 |
| 20260502202410 | 48 | 263 | 0.9 | 1.7 | 0.00 | 0.00 | 0.00 | 52 | 1018.2 |
| 20260502201908 | 48 | 302 | 1.7 | 1.7 | 0.00 | 0.00 | 0.00 | 51 | 1018.2 |
| 20260502201404 | 48 | 262 | 0.9 | 1.7 | 0.00 | 0.00 | 0.00 | 48 | 1018.2 |
| 20260502200901 | 48 | 341 | 2.6 | 2.6 | 0.00 | 0.00 | 0.00 | 49 | 1018.2 |
| 20260502200356 | 49 | 296 | 0.0 | 0.9 | 0.00 | 0.00 | 0.00 | 46 | 1018.4 |
| 20260502195854 | 48 | 326 | 0.9 | 1.7 | 0.00 | 0.00 | 0.00 | 49 | 1018.5 |
| 20260502195351 | 49 | 285 | 1.7 | 1.7 | 0.00 | 0.00 | 0.00 | 51 | 1018.6 |
| 20260502194848 | 49 | 289 | 1.7 | 1.7 | 0.00 | 0.00 | 0.00 | 45 | 1018.5 |
| 20260502194344 | 49 | 270 | 1.7 | 2.6 | 0.00 | 0.00 | 0.00 | 50 | 1018.7 |
| 20260502193840 | 49 | 298 | 0.9 | 0.9 | 0.00 | 0.00 | 0.00 | 48 | 1018.5 |
| 20260502193337 | 49 | 301 | 1.7 | 1.7 | 0.00 | 0.00 | 0.00 | 49 | 1018.8 |
| 20260502192833 | 48 | 263 | 0.9 | 0.9 | 0.00 | 0.00 | 0.00 | 51 | 1018.7 |
| 20260502192330 | 48 | 270 | 0.0 | 0.9 | 0.00 | 0.00 | 0.00 | 50 | 1018.7 |
| 20260502191827 | 48 | 340 | 1.7 | 1.7 | 0.00 | 0.00 | 0.00 | 48 | 1018.8 |
| 20260502191325 | 49 | 328 | 1.7 | 2.6 | 0.00 | 0.00 | 0.00 | 47 | 1018.9 |
| 20260502190822 | 49 | 28 | 1.7 | 2.6 | 0.00 | 0.00 | 0.00 | 48 | 1019.1 |
| 20260502190320 | 48 | 289 | 0.9 | 1.7 | 0.00 | 0.00 | 0.00 | 47 | 1019.3 |
| 20260502185815 | 48 | 194 | 2.6 | 4.3 | 0.00 | 0.00 | 0.00 | 50 | 1019.1 |
| 20260502185311 | 48 | 274 | 0.9 | 1.7 | 0.00 | 0.00 | 0.00 | 47 | 1019.1 |
| 20260502184808 | 47 | 307 | 0.9 | 1.7 | 0.00 | 0.00 | 0.00 | 51 | 1019.2 |